Flag for Germany Weather past 2 weeks in Cottbus, Brandenburg, Germany

Now
58 °F

Passing clouds.


Feels Like: 58 °F
Forecast: 52 / 71 °F
Wind: 3 mph from East

Location: Cottbus


UV Index: 3 (Moderate)

Visibility: 9 mi


Pressure: 30.02 "Hg

Humidity: 74%

Dew point: 49 °F

Location of CottbusLocation

Historic Weather in Cottbus

°F

Cottbus temperature yesterday

Maximum temperature yesterday: 66 °F (at 3:00 PM)
Minimum temperature yesterday: 50 °F (at 3:00 AM)
Average temperature yesterday: 56 °F

Past Weeks' High & Low Weather Summary

 TemperatureHumidityPressure
High72 °F (Apr 22, 3:00 PM)100% (Apr 23, 3:00 AM)30.44 "Hg (Apr 23, 3:00 AM)
Low29 °F (Apr 17, 6:00 AM)29% (Apr 17, 5:00 PM)29.72 "Hg (Apr 14, 1:00 PM)
Average51 °F74%30.02 "Hg
* Reported Apr 10 9:00 AM — Apr 25 9:00 AM, Cottbus, Weather by CustomWeather, © 2014

Note: Actual official high and low records may vary slightly from our data, if they occured in-between our weather recording intervals... More about our weather records

Advertising

Historic Weather Conditions — Data for Previous 24 hours

 ConditionsComfort  
Time TempWeatherWind HumidityBarometerVisibility
9:00 AM
Apr 25
58 °FPassing clouds.3 mph74%30.02 "Hg9 mi
8:00 AM56 °FScattered clouds.3 mph82%30.02 "Hg9 mi
7:00 AM54 °FPartly sunny.3 mph86%30.02 "Hg7 mi
6:00 AM54 °FOvercast.2 mph90%30.02 "Hg7 mi
5:00 AM54 °FOvercast.3 mph90%30.03 "Hg8 mi
4:00 AM52 °FFog.1 mph97%30.04 "Hg2 mi
3:00 AM53 °FFog.2 mph98%30.05 "Hg4 mi
2:00 AM53 °FFog.2 mph97%30.06 "Hg2 mi
1:00 AM54 °FOvercast.2 mph97%30.07 "Hg1 mi
12:00 AM56 °FLight rain. Overcast.1 mph96%30.07 "Hg2 mi
11:00 PM
Apr 24
57 °FPassing clouds.2 mph91%30.08 "Hg6 mi
10:00 PM57 °FFog.2 mph97%30.09 "Hg4 mi
9:00 PM58 °FFog.1 mph96%30.09 "Hg4 mi
8:00 PM59 °FOvercast.2 mph92%30.08 "Hg4 mi
7:00 PM60 °FLight rain. Overcast.1 mph90%30.08 "Hg5 mi
6:00 PM58 °FRain. Low clouds.1 mph94%30.10 "Hg2 mi
5:00 PM58 °FLow clouds.2 mph94%30.11 "Hg4 mi
4:00 PM62 °FOvercast.6 mph70%30.11 "Hg13 mi
3:00 PM66 °FThunderstorms. Scattered clouds.2 mph70%30.11 "Hg9 mi
2:00 PM63 °FScattered clouds.2 mph77%30.13 "Hg7 mi
1:00 PM59 °FLow clouds.2 mph85%30.15 "Hg5 mi
12:00 PM57 °FFog.1 mph93%30.17 "Hg4 mi
11:00 AM55 °FFog.1 mph99%30.17 "Hg2 mi
10:00 AM54 °FFog.1 mph100%30.17 "Hg1 mi
Weather by CustomWeather, © 2014

See weather overview